Weather History for K6R6 - July, 2013

Change the Weather History Date:

Monday, July 8, 2013

  Actual Average (KFST) Record (KFST)
Temperature  
Mean Temperature 86 °F -  
Max Temperature 96 °F 93 °F 105 °F (2004)
Min Temperature 77 °F 68 °F 66 °F (1997)
Cooling Degree Days 21    
Growing Degree Days 36 (Base 50)    
Moisture  
Dew Point 64 °F    
Average Humidity 50    
Maximum Humidity 74    
Minimum Humidity 31    
Precipitation  
Precipitation 0.00 in - - ()
Sea Level Pressure  
Sea Level Pressure 29.92 in    
Wind  
Wind Speed 13 mph (ESE)    
Max Wind Speed 22 mph    
Max Gust Speed 31 mph    
Averages and records for this station are not official NWS values.
T = Trace of Precipitation, MM = Missing Value Source: NWS Daily Summary

Daily Weather History Graph

Daily Weather History Graph

Search for Another Location

Airport or City:

Trip Planner

Search our weather history database for the weather conditions in past years. The results will help you decide how hot, cold, wet, or windy it might be!

Date:

Astronomy

Jul. 08, 2013 Rise Set
Actual Time 6:54 AM CDT 8:53 PM CDT
Civil Twilight 6:27 AM CDT 9:20 PM CDT
Nautical Twilight 5:54 AM CDT 9:53 PM CDT
Astronomical Twilight 5:19 AM CDT 10:28 PM CDT
Moon 7:19 AM CDT (7/8) 9:05 PM CDT (7/8)
Length of Visible Light 14h 53m
Length of Day
13h 58m
New Moon, 0% of the Moon is Illuminated
Jul 8
New Moon
Jul 15
First Quarter
Jul 22
Full
Jul 29
Last Quarter
Aug 6
New

Hourly Weather History & Observations

Time (CDT) Temp. Heat Index Dew Point Humidity Pressure Visibility Wind Dir Wind Speed Gust Speed Precip Events Conditions
12:53 AM 82.9 °F 83.3 °F 61.0 °F 47% 29.87 in - East 5.8 mph - N/A   Unknown
1:53 AM 82.9 °F 84.4 °F 64.0 °F 53% 29.86 in - East 9.2 mph - N/A   Unknown
2:53 AM 81.0 °F 82.5 °F 64.0 °F 56% 29.86 in - East 8.1 mph - N/A   Unknown
3:53 AM 81.0 °F 83.0 °F 66.0 °F 60% 29.87 in - East 10.4 mph - N/A   Unknown
4:53 AM 79.0 °F - 66.9 °F 66% 29.88 in - East 9.2 mph - N/A   Unknown
5:53 AM 78.1 °F - 66.9 °F 68% 29.90 in - East 11.5 mph - N/A   Unknown
6:53 AM 77.0 °F - 68.0 °F 74% 29.93 in - East 15.0 mph - N/A   Unknown
7:53 AM 77.0 °F - 68.0 °F 74% 29.95 in - East 13.8 mph 21.9 mph N/A   Unknown
8:53 AM 81.0 °F 83.8 °F 68.0 °F 65% 29.96 in - East 15.0 mph - N/A   Unknown
9:53 AM 84.0 °F 87.0 °F 68.0 °F 58% 29.98 in - East 17.3 mph 24.2 mph N/A   Unknown
10:53 AM 86.0 °F 88.8 °F 66.9 °F 53% 29.98 in - ESE 15.0 mph 20.7 mph N/A   Unknown
11:53 AM 89.1 °F 91.3 °F 66.0 °F 46% 29.98 in - East 16.1 mph 23.0 mph N/A   Unknown
12:53 PM 91.9 °F 93.3 °F 64.0 °F 39% 29.96 in - East 15.0 mph 25.3 mph N/A   Unknown
1:53 PM 91.9 °F 92.9 °F 63.0 °F 38% 29.95 in - ESE 20.7 mph 27.6 mph N/A   Unknown
2:53 PM 91.9 °F 92.5 °F 62.1 °F 37% 29.93 in - ESE 19.6 mph 27.6 mph N/A   Unknown
3:53 PM 95.0 °F 94.8 °F 60.1 °F 31% 29.91 in - ESE 17.3 mph 24.2 mph N/A   Unknown
4:53 PM 93.9 °F 94.0 °F 61.0 °F 33% 29.90 in - ESE 16.1 mph 31.1 mph N/A   Unknown
5:53 PM 93.0 °F 93.8 °F 62.1 °F 36% 29.90 in - ESE 19.6 mph 25.3 mph N/A   Unknown
6:53 PM 91.9 °F 92.9 °F 63.0 °F 38% 29.90 in - East 21.9 mph 26.5 mph N/A   Unknown
7:53 PM 91.0 °F 91.9 °F 63.0 °F 39% 29.91 in - East 16.1 mph 24.2 mph N/A   Unknown
8:53 PM 89.1 °F 89.0 °F 61.0 °F 39% 29.90 in - ESE 18.4 mph 26.5 mph N/A   Unknown
9:53 PM 86.0 °F 85.7 °F 60.1 °F 41% 29.93 in - ESE 19.6 mph 28.8 mph N/A   Unknown
10:53 PM 84.9 °F 85.9 °F 63.0 °F 48% 29.96 in - ESE 18.4 mph 26.5 mph N/A   Unknown
11:53 PM 82.9 °F 84.0 °F 63.0 °F 51% 29.98 in - ESE 13.8 mph 23.0 mph N/A   Unknown